User: anonymous   Login
Location: Hurecourt
(47.9030°N, 6.0653°E)
Time: 14:39:35
(UTC+00:00)
Language:

Cosmos 1500 - Orbit

View from above orbital plane
View from above orbital plane
View from above satellite
View from above satellite

Ground track
Ground track

The orbit data is extracted from the following two-line orbital elements,

1 14372U 83099A   21126.81126021  .00000577  00000-0  25701-4 0  9997
2 14372  82.5177  18.7996 0014709 178.5258 247.4052 15.19276767 52873
Epoch (UTC): 06 May 2021 19:28:12
Eccentricity: 0.0014709
inclination: 82.5177°
perigee height: 498 km
apogee height: 518 km
right ascension of ascending node: 18.7996°
argument of perigee: 178.5258°
revolutions per day: 15.19276767
mean anomaly at epoch: 247.4052°
orbit number at epoch: 5287

The dashed part of the orbit path shows where the satellite is in the earth's shadow,  

DLR